| time (UTC) | temp F | wind direction | speed knots | gust knots | rain 1hr in | rain 24hr in | rain mn in | humidity % | barometer mb |
| 20260503050615 | 55 | 190 | 0.9 | 6.1 | 0.00 | 0.00 | 0.00 | 43 | 1010.5 |
| 20260503050118 | 55 | 235 | 1.7 | 8.7 | 0.00 | 0.00 | 0.00 | 43 | 1010.5 |
| 20260503045621 | 55 | 236 | 1.7 | 8.7 | 0.00 | 0.00 | 0.00 | 44 | 1010.4 |
| 20260503045125 | 55 | 162 | 3.5 | 7.8 | 0.00 | 0.00 | 0.00 | 43 | 1010.5 |
| 20260503044628 | 55 | 264 | 2.6 | 7.8 | 0.00 | 0.00 | 0.00 | 43 | 1010.5 |
| 20260503044129 | 55 | 236 | 1.7 | 7.8 | 0.00 | 0.00 | 0.00 | 44 | 1010.6 |
| 20260503043630 | 55 | 264 | 3.5 | 9.6 | 0.00 | 0.00 | 0.00 | 44 | 1010.7 |
| 20260503043113 | 55 | 240 | 2.6 | 9.6 | 0.00 | 0.00 | 0.00 | 44 | 1010.7 |
| 20260503042637 | 55 | 284 | 0.9 | 2.6 | 0.00 | 0.00 | 0.00 | 45 | 1010.7 |
| 20260503042119 | 55 | 141 | 0.9 | 2.6 | 0.00 | 0.00 | 0.00 | 45 | 1010.7 |
| 20260503041624 | 55 | 141 | 1.7 | 4.3 | 0.00 | 0.00 | 0.00 | 45 | 1010.7 |
| 20260503041128 | 55 | 224 | 0.0 | 4.3 | 0.00 | 0.00 | 0.00 | 46 | 1010.8 |
| 20260503040631 | 54 | 242 | 0.0 | 4.3 | 0.00 | 0.00 | 0.00 | 45 | 1010.8 |
| 20260503040117 | 54 | 161 | 0.0 | 0.9 | 0.00 | 0.00 | 0.00 | 47 | 1010.9 |
| 20260503035617 | 55 | 161 | 0.0 | 2.6 | 0.00 | 0.00 | 0.00 | 46 | 1010.9 |
| 20260503035121 | 55 | 161 | 0.0 | 2.6 | 0.00 | 0.00 | 0.00 | 45 | 1010.9 |
| 20260503034646 | 55 | 161 | 0.0 | 2.6 | 0.00 | 0.00 | 0.00 | 46 | 1011.0 |
| 20260503034129 | 55 | 161 | 0.0 | 2.6 | 0.00 | 0.00 | 0.00 | 46 | 1011.0 |
| 20260503033613 | 55 | 161 | 0.0 | 2.6 | 0.00 | 0.00 | 0.00 | 46 | 1011.1 |
| 20260503033136 | 55 | 161 | 0.9 | 2.6 | 0.00 | 0.00 | 0.00 | 44 | 1011.2 |
| 20260503032618 | 55 | 161 | 0.0 | 2.6 | 0.00 | 0.00 | 0.00 | 47 | 1011.2 |
| 20260503032123 | 55 | 161 | 0.9 | 2.6 | 0.00 | 0.00 | 0.00 | 44 | 1011.3 |
| 20260503031628 | 55 | 239 | 0.0 | 1.7 | 0.00 | 0.00 | 0.00 | 44 | 1011.3 |
| 20260503031131 | 55 | 239 | 0.0 | 1.7 | 0.00 | 0.00 | 0.00 | 44 | 1011.4 |
| 20260503030636 | 55 | 239 | 0.0 | 3.5 | 0.00 | 0.00 | 0.00 | 47 | 1011.5 |
| 20260503030118 | 55 | 226 | 0.9 | 3.5 | 0.00 | 0.00 | 0.00 | 45 | 1011.6 |
| 20260503025621 | 55 | 295 | 0.9 | 2.6 | 0.00 | 0.00 | 0.00 | 43 | 1011.6 |
| 20260503025124 | 55 | 295 | 0.0 | 0.9 | 0.00 | 0.00 | 0.00 | 46 | 1011.6 |
| 20260503024626 | 55 | 295 | 0.0 | 0.9 | 0.00 | 0.00 | 0.00 | 43 | 1011.6 |
| 20260503024152 | 55 | 295 | 0.0 | 1.7 | 0.00 | 0.00 | 0.00 | 44 | 1011.7 |
| 20260503023632 | 55 | 295 | 0.0 | 2.6 | 0.00 | 0.00 | 0.00 | 44 | 1011.6 |
| 20260503023134 | 54 | 295 | 0.0 | 1.7 | 0.00 | 0.00 | 0.00 | 47 | 1011.6 |
| 20260503022615 | 55 | 295 | 0.0 | 1.7 | 0.00 | 0.00 | 0.00 | 49 | 1011.6 |
| 20260503022118 | 55 | 295 | 0.0 | 1.7 | 0.00 | 0.00 | 0.00 | 44 | 1011.7 |
| 20260503021620 | 54 | 295 | 0.0 | 1.7 | 0.00 | 0.00 | 0.00 | 45 | 1011.7 |
| 20260503021124 | 53 | 295 | 0.0 | 1.7 | 0.00 | 0.00 | 0.00 | 53 | 1011.7 |
| 20260503020628 | 53 | 295 | 0.0 | 0.9 | 0.00 | 0.00 | 0.00 | 50 | 1011.7 |
| 20260503020134 | 54 | 295 | 0.0 | 2.6 | 0.00 | 0.00 | 0.00 | 48 | 1011.6 |
| 20260503015614 | 55 | 295 | 0.9 | 2.6 | 0.00 | 0.00 | 0.00 | 45 | 1011.7 |
| 20260503015137 | 54 | 295 | 0.9 | 2.6 | 0.00 | 0.00 | 0.00 | 47 | 1011.6 |
| 20260503014620 | 54 | 295 | 0.0 | 1.7 | 0.00 | 0.00 | 0.00 | 50 | 1011.7 |
| 20260503014124 | 55 | 295 | 0.9 | 1.7 | 0.00 | 0.00 | 0.00 | 48 | 1011.6 |
| 20260503013627 | 56 | 295 | 0.9 | 2.6 | 0.00 | 0.00 | 0.00 | 45 | 1011.6 |
| 20260503013131 | 56 | 295 | 0.9 | 2.6 | 0.00 | 0.00 | 0.00 | 47 | 1011.6 |
| 20260503012615 | 57 | 295 | 0.0 | 1.7 | 0.00 | 0.00 | 0.00 | 39 | 1011.6 |
| 20260503012138 | 57 | 295 | 0.9 | 1.7 | 0.00 | 0.00 | 0.00 | 39 | 1011.6 |
| 20260503011621 | 57 | 295 | 0.0 | 0.9 | 0.00 | 0.00 | 0.00 | 43 | 1011.7 |
| 20260503011125 | 56 | 295 | 0.0 | 0.9 | 0.00 | 0.00 | 0.00 | 43 | 1011.7 |
| 20260503010629 | 56 | 295 | 0.0 | 1.7 | 0.00 | 0.00 | 0.00 | 44 | 1011.7 |
| 20260503010131 | 57 | 295 | 0.9 | 3.5 | 0.00 | 0.00 | 0.00 | 43 | 1011.7 |
| 20260503005613 | 58 | 295 | 0.9 | 5.2 | 0.00 | 0.00 | 0.00 | 40 | 1011.8 |
| 20260503005114 | 59 | 260 | 0.9 | 5.2 | 0.00 | 0.00 | 0.00 | 38 | 1011.8 |
| 20260503004617 | 59 | 253 | 0.9 | 2.6 | 0.00 | 0.00 | 0.00 | 38 | 1011.8 |
| 20260503004121 | 60 | 253 | 0.9 | 6.1 | 0.00 | 0.00 | 0.00 | 34 | 1011.8 |
| 20260503003623 | 60 | 266 | 0.0 | 6.1 | 0.00 | 0.00 | 0.00 | 35 | 1011.9 |
| 20260503003128 | 60 | 279 | 2.6 | 7.0 | 0.00 | 0.00 | 0.00 | 35 | 1011.8 |
| 20260503002632 | 60 | 49 | 0.0 | 3.5 | 0.00 | 0.00 | 0.00 | 35 | 1011.8 |
| 20260503002113 | 60 | 49 | 0.9 | 7.0 | 0.00 | 0.00 | 0.00 | 34 | 1011.8 |
| 20260503001615 | 61 | 311 | 1.7 | 8.7 | 0.00 | 0.00 | 0.00 | 32 | 1011.9 |
| 20260503001118 | 60 | 209 | 2.6 | 4.3 | 0.00 | 0.00 | 0.00 | 33 | 1012.0 |
| 20260503000622 | 60 | 266 | 0.9 | 7.0 | 0.00 | 0.00 | 0.00 | 33 | 1012.0 |
| 20260503000126 | 61 | 266 | 3.5 | 7.0 | 0.00 | 0.00 | 0.00 | 32 | 1012.0 |
| 20260502235630 | 61 | 267 | 1.7 | 7.0 | 0.00 | 0.00 | 0.00 | 33 | 1012.0 |
| 20260502235131 | 61 | 271 | 3.5 | 7.0 | 0.00 | 0.00 | 0.00 | 33 | 1012.1 |
| 20260502234615 | 61 | 225 | 0.9 | 7.0 | 0.00 | 0.00 | 0.00 | 33 | 1012.1 |
| 20260502234116 | 61 | 238 | 3.5 | 7.8 | 0.00 | 0.00 | 0.00 | 34 | 1012.3 |
| 20260502233620 | 60 | 263 | 0.9 | 8.7 | 0.00 | 0.00 | 0.00 | 33 | 1012.3 |
| 20260502233122 | 61 | 250 | 4.3 | 11.3 | 0.00 | 0.00 | 0.00 | 33 | 1012.4 |
| 20260502232626 | 61 | 304 | 5.2 | 13.0 | 0.00 | 0.00 | 0.00 | 35 | 1012.4 |
| 20260502232129 | 61 | 225 | 6.1 | 13.0 | 0.00 | 0.00 | 0.00 | 31 | 1012.5 |
| 20260502231652 | 61 | 244 | 3.5 | 10.4 | 0.00 | 0.00 | 0.00 | 31 | 1012.4 |
| 20260502231136 | 61 | 220 | 6.1 | 9.6 | 0.00 | 0.00 | 0.00 | 31 | 1012.5 |
| 20260502230618 | 61 | 262 | 4.3 | 9.6 | 0.00 | 0.00 | 0.00 | 31 | 1012.6 |
| 20260502230140 | 62 | 261 | 3.5 | 9.6 | 0.00 | 0.00 | 0.00 | 31 | 1012.6 |
| 20260502225622 | 62 | 247 | 6.1 | 9.6 | 0.00 | 0.00 | 0.00 | 35 | 1012.7 |
| 20260502225125 | 61 | 257 | 4.3 | 11.3 | 0.00 | 0.00 | 0.00 | 35 | 1012.6 |
| 20260502224629 | 61 | 228 | 5.2 | 11.3 | 0.00 | 0.00 | 0.00 | 37 | 1012.7 |
| 20260502224131 | 61 | 206 | 6.1 | 10.4 | 0.00 | 0.00 | 0.00 | 33 | 1012.8 |
| 20260502223616 | 61 | 286 | 2.6 | 9.6 | 0.00 | 0.00 | 0.00 | 33 | 1012.8 |
| 20260502223139 | 61 | 265 | 4.3 | 9.6 | 0.00 | 0.00 | 0.00 | 31 | 1012.9 |
| 20260502222641 | 61 | 305 | 4.3 | 12.2 | 0.00 | 0.00 | 0.00 | 39 | 1013.0 |
| 20260502222143 | 61 | 274 | 3.5 | 12.2 | 0.00 | 0.00 | 0.00 | 34 | 1013.0 |
| 20260502221625 | 61 | 141 | 4.3 | 11.3 | 0.00 | 0.00 | 0.00 | 30 | 1013.1 |
| 20260502221129 | 61 | 248 | 3.5 | 15.6 | 0.00 | 0.00 | 0.00 | 30 | 1013.2 |
| 20260502220652 | 61 | 306 | 6.1 | 15.6 | 0.00 | 0.00 | 0.00 | 30 | 1013.2 |
| 20260502220116 | 61 | 242 | 6.1 | 13.0 | 0.00 | 0.00 | 0.00 | 31 | 1013.3 |
| 20260502215618 | 61 | 236 | 6.1 | 15.6 | 0.00 | 0.00 | 0.00 | 31 | 1013.3 |
| 20260502215124 | 61 | 264 | 7.0 | 16.5 | 0.00 | 0.00 | 0.00 | 32 | 1013.4 |
| 20260502214624 | 60 | 263 | 7.0 | 16.5 | 0.00 | 0.00 | 0.00 | 30 | 1013.4 |
| 20260502214128 | 61 | 252 | 5.2 | 11.3 | 0.00 | 0.00 | 0.00 | 34 | 1013.4 |
| 20260502213628 | 60 | 251 | 4.3 | 16.5 | 0.00 | 0.00 | 0.00 | 30 | 1013.4 |
| 20260502213114 | 60 | 334 | 6.1 | 16.5 | 0.00 | 0.00 | 0.00 | 30 | 1013.5 |
| 20260502212619 | 60 | 336 | 7.0 | 15.6 | 0.00 | 0.00 | 0.00 | 31 | 1013.5 |
| 20260502212121 | 61 | 252 | 6.1 | 9.6 | 0.00 | 0.00 | 0.00 | 33 | 1013.5 |
| 20260502211625 | 61 | 234 | 5.2 | 20.9 | 0.00 | 0.00 | 0.00 | 33 | 1013.7 |
| 20260502211129 | 60 | 65 | 6.1 | 20.9 | 0.00 | 0.00 | 0.00 | 33 | 1013.8 |
| 20260502210652 | 61 | 283 | 5.2 | 16.5 | 0.00 | 0.00 | 0.00 | 32 | 1013.9 |
| 20260502210153 | 60 | 313 | 11.3 | 16.5 | 0.00 | 0.00 | 0.00 | 34 | 1013.9 |
| 20260502205614 | 61 | 313 | 4.3 | 17.4 | 0.00 | 0.00 | 0.00 | 35 | 1014.1 |
| 20260502205115 | 60 | 266 | 6.1 | 17.4 | 0.00 | 0.00 | 0.00 | 35 | 1014.1 |
| 20260502204617 | 60 | 257 | 6.1 | 13.0 | 0.00 | 0.00 | 0.00 | 35 | 1014.1 |
| 20260502204119 | 60 | 328 | 4.3 | 13.0 | 0.00 | 0.00 | 0.00 | 32 | 1014.2 |
| 20260502203622 | 60 | 338 | 7.0 | 13.9 | 0.00 | 0.00 | 0.00 | 34 | 1014.3 |
| 20260502203126 | 60 | 360 | 9.6 | 13.9 | 0.00 | 0.00 | 0.00 | 32 | 1014.3 |
| 20260502202651 | 59 | 307 | 8.7 | 13.9 | 0.00 | 0.00 | 0.00 | 33 | 1014.5 |
| 20260502202133 | 59 | 313 | 10.4 | 15.6 | 0.00 | 0.00 | 0.00 | 39 | 1014.6 |
| 20260502201615 | 59 | 275 | 6.1 | 15.6 | 0.00 | 0.00 | 0.00 | 32 | 1014.7 |
| 20260502201137 | 59 | 198 | 6.1 | 14.8 | 0.00 | 0.00 | 0.00 | 35 | 1014.7 |
| 20260502200621 | 59 | 13 | 6.1 | 17.4 | 0.00 | 0.00 | 0.00 | 37 | 1014.8 |
| 20260502200125 | 59 | 225 | 9.6 | 17.4 | 0.00 | 0.00 | 0.00 | 34 | 1014.8 |
| 20260502195627 | 59 | 329 | 6.1 | 13.9 | 0.00 | 0.00 | 0.00 | 33 | 1014.8 |
| 20260502195130 | 59 | 96 | 7.8 | 13.9 | 0.00 | 0.00 | 0.00 | 31 | 1015.0 |
| 20260502194614 | 59 | 304 | 4.3 | 13.0 | 0.00 | 0.00 | 0.00 | 35 | 1015.2 |
| 20260502194119 | 59 | 350 | 4.3 | 14.8 | 0.00 | 0.00 | 0.00 | 32 | 1015.2 |
| 20260502193620 | 59 | 223 | 8.7 | 14.8 | 0.00 | 0.00 | 0.00 | 38 | 1015.2 |
| 20260502193126 | 59 | 341 | 6.1 | 15.6 | 0.00 | 0.00 | 0.00 | 34 | 1015.2 |
| 20260502192630 | 58 | 332 | 7.8 | 15.6 | 0.00 | 0.00 | 0.00 | 34 | 1015.3 |
| 20260502192112 | 58 | 325 | 9.6 | 13.9 | 0.00 | 0.00 | 0.00 | 33 | 1015.4 |
| 20260502191616 | 58 | 350 | 7.8 | 13.9 | 0.00 | 0.00 | 0.00 | 33 | 1015.5 |
| 20260502191120 | 58 | 252 | 8.7 | 15.6 | 0.00 | 0.00 | 0.00 | 34 | 1015.6 |
| 20260502190623 | 58 | 346 | 7.0 | 16.5 | 0.00 | 0.00 | 0.00 | 34 | 1015.6 |
| 20260502190143 | 58 | 251 | 10.4 | 16.5 | 0.00 | 0.00 | 0.00 | 40 | 1015.8 |
| 20260502185626 | 58 | 210 | 3.5 | 10.4 | 0.00 | 0.00 | 0.00 | 36 | 1015.6 |
| 20260502185128 | 57 | 302 | 6.1 | 15.6 | 0.00 | 0.00 | 0.00 | 35 | 1015.8 |
| 20260502184614 | 58 | 243 | 7.0 | 17.4 | 0.00 | 0.00 | 0.00 | 35 | 1016.1 |
| 20260502184117 | 58 | 323 | 11.3 | 17.4 | 0.00 | 0.00 | 0.00 | 40 | 1016.0 |
| 20260502183621 | 57 | 248 | 4.3 | 14.8 | 0.00 | 0.00 | 0.00 | 34 | 1016.1 |
| 20260502183124 | 57 | 318 | 10.4 | 13.9 | 0.00 | 0.00 | 0.00 | 33 | 1016.1 |
| 20260502182129 | 57 | 242 | 7.8 | 15.6 | 0.00 | 0.00 | 0.00 | 36 | 1016.3 |
| 20260502181613 | 57 | 246 | 7.8 | 17.4 | 0.00 | 0.00 | 0.00 | 36 | 1016.4 |
| 20260502181116 | 58 | 259 | 11.3 | 17.4 | 0.00 | 0.00 | 0.00 | 37 | 1016.4 |
| 20260502180620 | 56 | 335 | 6.1 | 19.1 | 0.00 | 0.00 | 0.00 | 37 | 1016.3 |
| 20260502180123 | 57 | 350 | 9.6 | 19.1 | 0.00 | 0.00 | 0.00 | 34 | 1016.4 |
| 20260502170118 | 56 | 333 | 7.8 | 16.5 | 0.00 | 0.00 | 0.00 | 34 | 1017.0 |
| 20260502164128 | 56 | 314 | 6.1 | 14.8 | 0.00 | 0.00 | 0.00 | 41 | 1017.1 |
| 20260502163612 | 55 | 251 | 11.3 | 14.8 | 0.00 | 0.00 | 0.00 | 37 | 1017.3 |
| 20260502163117 | 54 | 265 | 5.2 | 15.6 | 0.00 | 0.00 | 0.00 | 37 | 1017.3 |
| 20260502162620 | 54 | 332 | 6.1 | 17.4 | 0.00 | 0.00 | 0.00 | 42 | 1017.3 |
| 20260502162123 | 53 | 269 | 8.7 | 17.4 | 0.00 | 0.00 | 0.00 | 37 | 1017.5 |
| 20260502161625 | 54 | 275 | 3.5 | 8.7 | 0.00 | 0.00 | 0.00 | 39 | 1017.5 |
| 20260502161127 | 54 | 260 | 4.3 | 13.0 | 0.00 | 0.00 | 0.00 | 40 | 1017.5 |
| 20260502160630 | 54 | 268 | 5.2 | 15.6 | 0.00 | 0.00 | 0.00 | 48 | 1017.5 |
| 20260502160114 | 54 | 286 | 8.7 | 15.6 | 0.00 | 0.00 | 0.00 | 48 | 1017.6 |
| 20260502152118 | 51 | 302 | 4.3 | 8.7 | 0.00 | 0.00 | 0.00 | 50 | 1017.9 |
| 20260502151621 | 51 | 360 | 3.5 | 8.7 | 0.00 | 0.00 | 0.00 | 48 | 1017.9 |
| 20260502151126 | 51 | 263 | 3.5 | 8.7 | 0.00 | 0.00 | 0.00 | 53 | 1017.9 |
| 20260502150627 | 50 | 266 | 0.9 | 7.0 | 0.00 | 0.00 | 0.00 | 52 | 1018.0 |
| 20260502150151 | 51 | 266 | 2.6 | 7.0 | 0.00 | 0.00 | 0.00 | 59 | 1018.1 |
| 20260502130632 | 40 | 239 | 3.5 | 7.0 | 0.00 | 0.00 | 0.00 | 69 | 1018.9 |
| 20260502130115 | 39 | 235 | 3.5 | 6.1 | 0.00 | 0.00 | 0.00 | 69 | 1018.9 |
| 20260502123641 | 38 | 225 | 1.7 | 6.1 | 0.00 | 0.00 | 0.00 | 72 | 1018.9 |
| 20260502123143 | 37 | 284 | 0.9 | 3.5 | 0.00 | 0.00 | 0.00 | 73 | 1018.9 |
| 20260502122624 | 37 | 189 | 0.9 | 6.1 | 0.00 | 0.00 | 0.00 | 74 | 1018.9 |
| 20260502122130 | 36 | 244 | 1.7 | 6.1 | 0.00 | 0.00 | 0.00 | 75 | 1018.9 |
| 20260502121633 | 36 | 257 | 0.9 | 4.3 | 0.00 | 0.00 | 0.00 | 76 | 1018.8 |
| 20260502121115 | 35 | 257 | 0.9 | 4.3 | 0.00 | 0.00 | 0.00 | 79 | 1018.8 |
| 20260502120639 | 34 | 258 | 0.9 | 4.3 | 0.00 | 0.00 | 0.00 | 84 | 1018.8 |
| 20260502120123 | 33 | 43 | 0.9 | 0.9 | 0.00 | 0.00 | 0.00 | 86 | 1018.8 |
| 20260502115626 | 32 | 43 | 0.0 | 0.0 | 0.00 | 0.00 | 0.00 | 85 | 1018.8 |
| 20260502115148 | 32 | 43 | 0.0 | 0.0 | 0.00 | 0.00 | 0.00 | 86 | 1018.7 |
| 20260502114630 | 32 | 43 | 0.0 | 0.0 | 0.00 | 0.00 | 0.00 | 86 | 1018.6 |
| 20260502114112 | 32 | 43 | 0.0 | 0.0 | 0.00 | 0.00 | 0.00 | 87 | 1018.6 |
| 20260502113614 | 31 | 43 | 0.0 | 0.0 | 0.00 | 0.00 | 0.00 | 87 | 1018.6 |
| 20260502113133 | 31 | 43 | 0.0 | 0.0 | 0.00 | 0.00 | 0.00 | 87 | 1018.6 |
| 20260502112614 | 31 | 43 | 0.0 | 0.0 | 0.00 | 0.00 | 0.00 | 86 | 1018.5 |
| 20260502112117 | 31 | 43 | 0.0 | 0.0 | 0.00 | 0.00 | 0.00 | 86 | 1018.5 |
| 20260502111620 | 31 | 43 | 0.0 | 0.0 | 0.00 | 0.00 | 0.00 | 85 | 1018.5 |
| 20260502111124 | 31 | 43 | 0.0 | 0.0 | 0.00 | 0.00 | 0.00 | 85 | 1018.5 |
| 20260502110627 | 31 | 43 | 0.0 | 0.0 | 0.00 | 0.00 | 0.00 | 84 | 1018.5 |
| 20260502110128 | 31 | 43 | 0.0 | 0.9 | 0.00 | 0.00 | 0.00 | 84 | 1018.5 |
| 20260502105651 | 31 | 43 | 0.0 | 0.9 | 0.00 | 0.00 | 0.00 | 83 | 1018.5 |
| 20260502105131 | 31 | 43 | 0.0 | 0.0 | 0.00 | 0.00 | 0.00 | 83 | 1018.5 |
| 20260502104613 | 31 | 43 | 0.0 | 0.0 | 0.00 | 0.00 | 0.00 | 83 | 1018.6 |
| 20260502104119 | 31 | 43 | 0.0 | 0.0 | 0.00 | 0.00 | 0.00 | 82 | 1018.6 |
| 20260502103622 | 32 | 43 | 0.0 | 0.0 | 0.00 | 0.00 | 0.00 | 82 | 1018.6 |
| 20260502103125 | 32 | 43 | 0.0 | 0.0 | 0.00 | 0.00 | 0.00 | 82 | 1018.6 |
| 20260502102629 | 32 | 43 | 0.0 | 0.0 | 0.00 | 0.00 | 0.00 | 81 | 1018.6 |
| 20260502102115 | 32 | 43 | 0.0 | 0.0 | 0.00 | 0.00 | 0.00 | 81 | 1018.7 |
| 20260502101620 | 32 | 43 | 0.0 | 0.0 | 0.00 | 0.00 | 0.00 | 81 | 1018.6 |
| 20260502101124 | 32 | 43 | 0.0 | 0.0 | 0.00 | 0.00 | 0.00 | 80 | 1018.7 |
| 20260502100628 | 32 | 43 | 0.0 | 0.0 | 0.00 | 0.00 | 0.00 | 80 | 1018.7 |
| 20260502100130 | 32 | 43 | 0.0 | 0.0 | 0.00 | 0.00 | 0.00 | 80 | 1018.7 |
| 20260502091121 | 33 | 43 | 0.0 | 0.0 | 0.00 | 0.00 | 0.00 | 77 | 1018.6 |
| 20260502090625 | 33 | 43 | 0.0 | 0.0 | 0.00 | 0.00 | 0.00 | 77 | 1018.6 |
| 20260502090130 | 33 | 43 | 0.0 | 0.0 | 0.00 | 0.00 | 0.00 | 77 | 1018.5 |
| 20260502071139 | 34 | 43 | 0.0 | 0.0 | 0.00 | 0.00 | 0.00 | 73 | 1018.6 |
| 20260502070622 | 34 | 43 | 0.0 | 0.0 | 0.00 | 0.00 | 0.00 | 74 | 1018.6 |
| 20260502070127 | 34 | 43 | 0.0 | 0.0 | 0.00 | 0.00 | 0.00 | 73 | 1018.6 |
| 20260502065611 | 34 | 43 | 0.0 | 0.0 | 0.00 | 0.00 | 0.00 | 72 | 1018.7 |
| 20260502065112 | 34 | 43 | 0.0 | 0.0 | 0.00 | 0.00 | 0.00 | 72 | 1018.7 |
| 20260502064615 | 34 | 43 | 0.0 | 0.0 | 0.00 | 0.00 | 0.00 | 72 | 1018.7 |
| 20260502064119 | 35 | 43 | 0.0 | 0.0 | 0.00 | 0.00 | 0.00 | 72 | 1018.7 |
| 20260502063641 | 35 | 43 | 0.0 | 0.0 | 0.00 | 0.00 | 0.00 | 71 | 1018.8 |
| 20260502063127 | 35 | 43 | 0.0 | 0.0 | 0.00 | 0.00 | 0.00 | 71 | 1018.8 |
| 20260502062611 | 34 | 43 | 0.0 | 0.9 | 0.00 | 0.00 | 0.00 | 70 | 1018.7 |
| 20260502062114 | 34 | 43 | 0.0 | 0.9 | 0.00 | 0.00 | 0.00 | 71 | 1018.8 |
| 20260502061637 | 34 | 43 | 0.0 | 0.0 | 0.00 | 0.00 | 0.00 | 70 | 1018.7 |
| 20260502055623 | 34 | 43 | 0.0 | 0.0 | 0.00 | 0.00 | 0.00 | 71 | 1018.7 |
| 20260502055127 | 35 | 43 | 0.0 | 0.0 | 0.00 | 0.00 | 0.00 | 71 | 1018.7 |
| 20260502054629 | 35 | 43 | 0.0 | 0.0 | 0.00 | 0.00 | 0.00 | 70 | 1018.7 |
| 20260502054111 | 35 | 43 | 0.0 | 0.0 | 0.00 | 0.00 | 0.00 | 69 | 1018.7 |
| 20260502053616 | 36 | 43 | 0.0 | 0.9 | 0.00 | 0.00 | 0.00 | 67 | 1018.6 |
| 20260502053122 | 36 | 43 | 0.0 | 0.9 | 0.00 | 0.00 | 0.00 | 66 | 1018.7 |
| 20260502052627 | 37 | 43 | 0.0 | 0.9 | 0.00 | 0.00 | 0.00 | 66 | 1018.7 |
| 20260502052129 | 37 | 43 | 0.0 | 0.9 | 0.00 | 0.00 | 0.00 | 64 | 1018.7 |
| 20260502051612 | 37 | 43 | 0.0 | 1.7 | 0.00 | 0.00 | 0.00 | 65 | 1018.6 |